Вернуться в каталог

STARLINK-37283

АктивенСвязьVLEO
NORAD 68568·PAYLOAD·🇺🇸 United States

Запущен Apr 2, 2026 с Cape Canaveral Space Force Station

Loading…

Ближайшие Пролёты (ближайшие 24 часа)

TLE

СвежийSource: CelesTrak SupGP

Эпоха: Sep 15, 2026, 03:44 UTC

1 68568C 26070AC  26258.15604167 -.00008255  00000+0 -24398-3 0  2589
2 68568  53.1590 199.0286 0001526  82.7409 229.2689 15.34385367    11

Отслеживайте STARLINK-37283 в реальном времени с AllMySat

Download on the App Store